Regional Weather Roundup
Issued by NWS

Home | Current Version | Previous Version | Text Only | Print | Product List | Glossary Off
Versions: 1 2 3 4 5 6 7 8 9 10 11 12 13 14 15 16 17 18 19 20 21 22 23 24 25 26 27 28 29 30 31 32 33 34 35 36 37 38 39 40 41 42 43 44 45 46 47 48 49 50

000
ASUS43 KLOT 141803
RWRIL

ILLINOIS REGIONAL WEATHER ROUNDUP
NATIONAL WEATHER SERVICE CHICAGO/ROMEOVILLE IL
1200 PM CST SUN FEB 14 2016

NOTE: "FAIR" INDICATES FEW OR NO CLOUDS BELOW 12,000 FEET WITH NO
SIGNIFICANT WEATHER AND/OR OBSTRUCTIONS TO VISIBILITY.

* THESE STATIONS ARE NOT UNDER NWS QUALITY CONTROL. THEY ALSO MAY NOT
  REPORT WEATHER SUCH AS PRECIPITATION OR FOG.

ILZ001-002-007-009-015-016-024-141900-
NORTHWEST ILLINOIS

CITY           SKY/WX    TMP DP  RH WIND       PRES   REMARKS
MOLINE         LGT SNOW  19  12  74 SE15      30.10F VSB 1   WCI   5
6HR MIN TEMP:  17; 6HR MAX TEMP:  19; 6HR PCP:  0.11;

STERLING*      CLOUDY    18  10  73 SE17      30.12F WCI   2
$$

ILZ003-004-008-010-011-017-018-141900-
NORTH CENTRAL ILLINOIS

CITY           SKY/WX    TMP DP  RH WIND       PRES   REMARKS
ROCKFORD       SNOW      15  11  83 SE15      30.20F VSB 1/4 WCI   0
6HR MIN TEMP:  14; 6HR MAX TEMP:  17; 6HR PCP:  0.06;

FREEPORT*      LGT SNOW  14  11  87 SE16      30.17F VSB 1   WCI  -2
$$

ILZ005-006-012>014-019>023-141900-
NORTHEAST ILLINOIS

CITY           SKY/WX    TMP DP  RH WIND       PRES   REMARKS
CHICAGO-OHARE  FLURRIES  17   3  54 SE13      30.23F WCI   4
6HR MIN TEMP:  13; 6HR MAX TEMP:  17; 6HR PCP: TRACE;

CHICAGO-MIDWAY CLOUDY    18   3  52 SE15      30.25F WCI   4
6HR MIN TEMP:  15; 6HR MAX TEMP:  19;

AURORA         LGT SNOW  17  12  80 SE15G23   30.22F VSB 3/4 WCI   2
6HR MIN TEMP:  14; 6HR MAX TEMP:  18; 6HR PCP: TRACE;

WAUKEGAN       CLOUDY    17   7  64 SE15      30.22F WCI   2
6HR MIN TEMP:   9; 6HR MAX TEMP:  17;

DUPAGE AIRPORT HVY SNOW  15   8  73 SE13      30.21F VSB 1/4 WCI   1
6HR MIN TEMP:  13; 6HR MAX TEMP:  16; 6HR PCP: TRACE;

WHEELING       CLOUDY    17   4  56 SE13      30.25F WCI   4
6HR MIN TEMP:  13; 6HR MAX TEMP:  17; 6HR PCP: TRACE;

NORTHERLY ISL    N/A     18   5  57 SE14        N/A  WCI   4
$$

LMZ740>746-141900-
SOUTHERN LAKE MICHIGAN

STATION/POSITION SKY/WX   TEMP    WIND        PRES    VSBY  WAVE
                          AIR SEA DIR/SP/G                  HT/PER
                          (F)     (DEG/KT/KT) (MB)    (MI)  (FT/S)
HARRISON CRIB              17     150/ 17/ 21   N/A
BURNHAM HARBOR             18     150/ 12/ 17   N/A
CALUMET HARBOR             16     130/ 13/ 18 1024.4F
BURNS HARBOR               16     160/ 10/ 15 1026.1F
MICHIGAN CITY              14     120/ 12/ 14   N/A
$$

ILZ025>027-034>036-040-047-049-050-058-095>099-141900-
WEST-CENTRAL ILLINOIS

CITY           SKY/WX    TMP DP  RH WIND       PRES   REMARKS
QUINCY         CLOUDY    21  16  81 SE13      30.03F WCI   9
MACOMB*        CLOUDY    19  16  89 SE17      30.09F WCI   4
$$

ILZ028>032-037-038-041>044-048-051>054-059>061-141900-
CENTRAL ILLINOIS

CITY           SKY/WX    TMP DP  RH WIND       PRES   REMARKS
BLOOMINGTON    LGT SNOW  18  16  92 SE17      30.14F VSB 3/4 WCI   3
DECATUR        SNOW      19  15  84 SE16      30.14F VSB 1/4 WCI   4
PEORIA         LGT SNOW  20  14  77 SE16G29   30.13F WCI   6
6HR MIN TEMP:  16; 6HR MAX TEMP:  20; 6HR PCP:  0.09;

SPRINGFIELD    SNOW      21  18  88 SE13      30.11F VSB 1/2 WCI   9
6HR MIN TEMP:  19; 6HR MAX TEMP:  21; 6HR PCP:  0.17;

TAYLORVILLE    NOT AVBL
$$

ILZ033-039-045-046-055>057-062-063-141900-
EAST-CENTRAL ILLINOIS

CITY           SKY/WX    TMP DP  RH WIND       PRES   REMARKS
CHAMPAIGN      SNOW      19  15  84 SE18G24   30.17F VSB 1/2 WCI   4
MATTOON        SNOW      19  15  84 SE15      30.16F VSB 1/2 WCI   5
PARIS*         LGT SNOW  19  16  88 SE13      30.21F VSB 3/4 WCI   6
$$

ILZ079-100>102-141900-
SOUTHWEST ILLINOIS

CITY           SKY/WX    TMP DP  RH WIND       PRES   REMARKS
ALTON          LGT SNOW  21  19  93 SE14      30.10  VSB 1   WCI   8
BELLEVILLE     LGT SNOW  23  21  93 SE10      30.10F FOG     WCI  12
CAHOKIA*       LGT SNOW  23  18  81 SE10      30.10F WCI  12
SPARTA*        LGT SNOW  22  19  88 SE9       30.13F WCI  12
$$

ILZ064>066-069>071-074>076-080>082-084>086-088>090-092>094-141900-
SOUTH-CENTRAL ILLINOIS

CITY           SKY/WX    TMP DP  RH WIND       PRES   REMARKS
CARBONDALE     CLOUDY    24  19  81 SE9       30.13F WCI  14
6HR MIN TEMP:  21; 6HR MAX TEMP:  24; 6HR PCP:  0.13;

MARION         LGT SNOW  25  21  86 SE12      30.14F WCI  14
MT. VERNON     CLOUDY    23  16  74 E9        30.15F WCI  13
CENTRALIA*     SNOW      23  21  91 SE8       30.13F VSB 1/2 WCI  14
SALEM*         SNOW      24  20  86 SE9       30.15F VSB 1/4 WCI  14
$$

ILZ067-068-072-073-078-083-087-091-141900-
SOUTHEAST ILLINOIS

CITY           SKY/WX    TMP DP  RH WIND       PRES   REMARKS
LAWRENCEVILLE  LGT SNOW  21  17  84 SE13      30.23F FOG     WCI   9
HARRISBURG*    LGT SNOW  23  21  92 SE10      30.18F WCI  13
$$

ABBREVIATIONS USED IN REMARKS
   TC - TEMPERATURE IN CELSIUS
  WCI - WIND CHILL INDEX
   HX - HEAT INDEX
  VSB - VISIBILITY
$$




USA.gov is the U.S. government's official web portal to all federal, state and local government web resources and services.